スキッフ彗星

223P/Skiff (2019)

English version
Home page
Updated on November 9, 2019

---------------------------------------------------------------------

・ プロフィール

・ 写真集

・ 軌道要素

Epoch 2019 Feb. 6.0 TT = JDT 2458520.5
T 2019 Jan. 27.27174 TT                                 Williams
q   2.4308744            (2000.0)            P               Q
n   0.11624486     Peri.   37.82484     +0.89382111     -0.43625064
a   4.1580228      Node   346.79279     +0.21162463     +0.61439948
e   0.4153773      Incl.   27.01409     +0.39534648     +0.65741818
P   8.48
From 641 observations 2001 July 27-2019 Oct. 29, mean residual 0".5.

・ 光度変化

        m1 = 13.5 + 5 logΔ + 7.0 log r(t - 150)

---------------------------------------------------------------------

軌道要素はM.P.E.C. 2019-V116に掲載されたものです。
光度グラフはComet for Windowsで作成したものです。

---------------------------------------------------------------------

Copyright(C) Seiichi Yoshida (comet@aerith.net). All rights reserved.